Granite Falls, MN

6:12 PM CST on November 20, 2019 (GMT -0600)
Granite Falls

Weather History for KGDB - October, 2019

Change the Weather History Date:

Sunday, October 20, 2019

  Actual Average (WUND) Record (WUND)
Temperature  
Mean Temperature 50 °F -  
Max Temperature 64 °F - - (-1)
Min Temperature 36 °F - - (-1)
Degree Days  
Heating Degree Days 15    
Moisture  
Dew Point 38 °F    
Average Humidity 61    
Maximum Humidity 88    
Minimum Humidity 36    
Precipitation  
Precipitation 0.00 in - - ()
Sea Level Pressure  
Sea Level Pressure 29.76 in    
Wind  
Wind Speed 7 mph (SE)    
Max Wind Speed 20 mph    
Max Gust Speed 26 mph    
Visibility 10 miles    
Events Rain    
Averages and records for this station are not official NWS values.
T = Trace of Precipitation, MM = Missing Value Source: NWS Daily Summary

Daily Weather History Graph

Daily Weather History Graph

Search for Another Location

Airport or City:

Astronomy

Oct. 20, 2019 Rise Set
Actual Time 7:43 AM CDT 6:29 PM CDT
Civil Twilight 7:14 AM CDT 6:59 PM CDT
Nautical Twilight 6:40 AM CDT 7:33 PM CDT
Astronomical Twilight 6:06 AM CDT 8:06 PM CDT
Moon 11:29 PM CDT (10/20) 2:22 PM CDT (10/20)
Length of Visible Light 11h 44m
Length of Day
10h 45m
Waning Gibbous, 59% of the Moon is Illuminated
Oct 20
Waning Gibbous
Oct 21
Last Quarter
Oct 27
New
Nov 4
First Quarter
Nov 12
Full

Hourly Weather History & Observations

Time (CDT) Temp. Windchill Dew Point Humidity Pressure Visibility Wind Dir Wind Speed Gust Speed Precip Events Conditions
12:16 AM 39.7 °F 34.9 °F 34.0 °F 80% 29.76 in 10.0 mi South 6.9 mph - N/A   Clear
12:35 AM 38.1 °F 32.9 °F 34.2 °F 86% 29.75 in 10.0 mi South 6.9 mph - N/A   Clear
12:36 AM 38.1 °F 32.9 °F 34.3 °F 86% 29.75 in 10.0 mi South 6.9 mph - N/A   Clear
12:55 AM 39.6 °F 36.3 °F 34.5 °F 82% 29.75 in 10.0 mi South 4.6 mph - N/A   Clear
12:56 AM 39.4 °F 36.1 °F 34.3 °F 82% 29.75 in 10.0 mi South 4.6 mph - N/A   Clear
1:18 AM 39.6 °F 37.4 °F 34.7 °F 83% 29.74 in 7.0 mi South 3.5 mph - N/A   Clear
1:36 AM 38.7 °F 35.2 °F 34.0 °F 83% 29.75 in 10.0 mi South 4.6 mph - N/A   Clear
1:55 AM 39.0 °F 34.8 °F 34.0 °F 82% 29.75 in 10.0 mi South 5.8 mph - N/A   Clear
1:56 AM 38.7 °F 33.6 °F 34.0 °F 83% 29.75 in 10.0 mi South 6.9 mph - N/A   Clear
2:15 AM 37.0 °F 32.4 °F 33.6 °F 87% 29.75 in 10.0 mi South 5.8 mph - N/A   Clear
2:16 AM 37.2 °F 32.6 °F 33.6 °F 87% 29.75 in 10.0 mi South 5.8 mph - N/A   Clear
2:35 AM 38.1 °F 35.7 °F 34.2 °F 86% 29.76 in 10.0 mi South 3.5 mph - N/A   Clear
2:39 AM 38.1 °F 35.7 °F 34.0 °F 85% 29.76 in 10.0 mi South 3.5 mph - N/A   Clear
2:58 AM 38.3 °F 34.8 °F 34.2 °F 85% 29.76 in 10.0 mi South 4.6 mph - N/A   Clear
3:15 AM 37.0 °F 31.0 °F 33.1 °F 86% 29.76 in 10.0 mi South 8.1 mph - N/A   Clear
3:35 AM 37.6 °F 32.3 °F 33.8 °F 86% 29.77 in 10.0 mi South 6.9 mph - N/A   Clear
3:36 AM 37.4 °F 32.1 °F 33.8 °F 87% 29.77 in 10.0 mi South 6.9 mph - N/A   Clear
3:55 AM 37.9 °F 32.7 °F 34.0 °F 86% 29.77 in 10.0 mi South 6.9 mph - N/A   Scattered Clouds
4:18 AM 37.0 °F 31.6 °F 33.4 °F 87% 29.77 in 10.0 mi South 6.9 mph - N/A   Scattered Clouds
4:37 AM 37.4 °F 32.8 °F 33.4 °F 86% 29.77 in 10.0 mi SSE 5.8 mph - N/A   Clear
4:56 AM 37.4 °F 32.8 °F 33.3 °F 85% 29.77 in 10.0 mi SSE 5.8 mph - N/A   Clear
5:15 AM 38.1 °F 33.7 °F 33.6 °F 84% 29.77 in 10.0 mi SSE 5.8 mph - N/A   Clear
5:16 AM 37.9 °F 34.4 °F 33.6 °F 84% 29.77 in 10.0 mi SSE 4.6 mph - N/A   Clear
5:35 AM 37.4 °F 34.9 °F 33.8 °F 87% 29.78 in 10.0 mi SSE 3.5 mph - N/A   Clear
5:57 AM 37.6 °F 34.0 °F 33.4 °F 85% 29.78 in 10.0 mi SE 4.6 mph - N/A   Clear
6:15 AM 38.3 °F 34.8 °F 34.0 °F 84% 29.79 in 10.0 mi SE 4.6 mph - N/A   Clear
6:35 AM 37.4 °F 33.8 °F 33.4 °F 86% 29.79 in 10.0 mi SSE 4.6 mph - N/A   Clear
6:36 AM 37.4 °F 33.8 °F 33.6 °F 86% 29.79 in 10.0 mi SSE 4.6 mph - N/A   Clear
6:55 AM 36.9 °F 33.1 °F 32.9 °F 86% 29.79 in 10.0 mi ESE 4.6 mph - N/A   Scattered Clouds
6:56 AM 37.0 °F 32.4 °F 33.1 °F 86% 29.79 in 10.0 mi SE 5.8 mph - N/A   Scattered Clouds
7:19 AM 38.7 °F 34.3 °F 33.3 °F 81% 29.79 in 10.0 mi East 5.8 mph - N/A   Clear
7:36 AM 38.5 °F - 33.1 °F 81% 29.79 in 10.0 mi Calm Calm - N/A   Clear
7:56 AM 36.1 °F 33.5 °F 32.9 °F 88% 29.80 in 10.0 mi East 3.5 mph - N/A   Scattered Clouds
8:15 AM 37.0 °F 33.3 °F 33.4 °F 87% 29.80 in 10.0 mi East 4.6 mph - N/A   Scattered Clouds
8:35 AM 39.2 °F 35.9 °F 34.5 °F 83% 29.80 in 10.0 mi East 4.6 mph - N/A   Clear
8:39 AM 39.9 °F 36.7 °F 35.1 °F 83% 29.80 in 10.0 mi East 4.6 mph - N/A   Clear
8:57 AM 42.4 °F 39.6 °F 36.3 °F 79% 29.80 in 10.0 mi East 4.6 mph - N/A   Clear
9:16 AM 46.2 °F 42.7 °F 37.4 °F 71% 29.79 in 10.0 mi ESE 6.9 mph - N/A   Clear
9:35 AM 49.6 °F - 38.3 °F 65% 29.80 in 10.0 mi SE 4.6 mph - N/A   Clear
9:36 AM 50.0 °F - 38.5 °F 65% 29.80 in 10.0 mi SE 4.6 mph - N/A   Clear
10:18 AM 53.6 °F - 39.7 °F 59% 29.81 in 10.0 mi SE 6.9 mph - N/A   Clear
10:36 AM 54.5 °F - 39.9 °F 58% 29.81 in 10.0 mi SE 6.9 mph - N/A   Clear
10:55 AM 56.3 °F - 40.6 °F 56% 29.81 in 10.0 mi ESE 4.6 mph - N/A   Clear
11:15 AM 59.2 °F - 39.7 °F 49% 29.81 in 7.0 mi ESE 6.9 mph - N/A   Clear
11:16 AM 59.2 °F - 39.7 °F 49% 29.81 in 7.0 mi ESE 6.9 mph - N/A   Clear
11:35 AM 61.2 °F - 38.7 °F 43% 29.82 in 7.0 mi ESE 8.1 mph - N/A   Clear
11:39 AM 61.3 °F - 38.3 °F 43% 29.82 in 10.0 mi ESE 9.2 mph - N/A   Clear
11:58 AM 62.2 °F - 40.1 °F 44% 29.82 in 10.0 mi SE 4.6 mph - N/A   Scattered Clouds
12:15 PM 61.7 °F - 39.4 °F 44% 29.82 in 10.0 mi SE 6.9 mph - N/A   Mostly Cloudy
12:35 PM 61.9 °F - 39.4 °F 43% 29.81 in 10.0 mi ESE 4.6 mph - N/A   Mostly Cloudy
12:36 PM 61.9 °F - 39.4 °F 43% 29.81 in 10.0 mi ESE 3.5 mph - N/A   Mostly Cloudy
12:55 PM 62.1 °F - 40.1 °F 44% 29.81 in 10.0 mi ESE 4.6 mph - N/A   Overcast
12:56 PM 62.1 °F - 40.1 °F 44% 29.81 in 10.0 mi SE 4.6 mph - N/A   Overcast
1:18 PM 63.0 °F - 40.6 °F 44% 29.80 in 10.0 mi ESE 6.9 mph - N/A   Overcast
1:37 PM 63.1 °F - 40.8 °F 44% 29.79 in 10.0 mi SE 5.8 mph - N/A   Overcast
1:56 PM 63.1 °F - 40.5 °F 43% 29.78 in 10.0 mi ESE 4.6 mph - N/A   Mostly Cloudy
2:15 PM 64.8 °F - 40.6 °F 41% 29.77 in 7.0 mi ESE 9.2 mph - N/A   Mostly Cloudy
2:16 PM 64.8 °F - 40.1 °F 40% 29.77 in 7.0 mi SE 10.4 mph - N/A   Mostly Cloudy
2:35 PM 64.8 °F - 38.8 °F 38% 29.77 in 10.0 mi SE 9.2 mph - N/A   Mostly Cloudy
2:57 PM 64.8 °F - 39.2 °F 39% 29.77 in 10.0 mi SE 8.1 mph - N/A   Scattered Clouds
3:15 PM 64.8 °F - 38.5 °F 38% 29.76 in 10.0 mi SE 10.4 mph - N/A   Scattered Clouds
3:35 PM 64.8 °F - 37.4 °F 36% 29.76 in 10.0 mi SE 10.4 mph 16.1 mph N/A   Mostly Cloudy
3:55 PM 64.8 °F - 37.8 °F 37% 29.76 in 10.0 mi SE 10.4 mph 16.1 mph N/A   Mostly Cloudy
3:56 PM 64.8 °F - 37.8 °F 37% 29.76 in 10.0 mi SE 12.7 mph 16.1 mph N/A   Mostly Cloudy
4:19 PM 64.8 °F - 38.8 °F 38% 29.76 in 10.0 mi SE 10.4 mph - N/A   Mostly Cloudy
4:36 PM 64.2 °F - 39.0 °F 39% 29.75 in 10.0 mi ESE 11.5 mph 16.1 mph N/A   Overcast
4:55 PM 63.0 °F - 39.9 °F 43% 29.75 in 10.0 mi ESE 12.7 mph 17.3 mph N/A   Mostly Cloudy
4:56 PM 63.0 °F - 40.1 °F 43% 29.75 in 10.0 mi ESE 13.8 mph - N/A   Mostly Cloudy
5:15 PM 63.0 °F - 40.8 °F 44% 29.73 in 10.0 mi East 10.4 mph 19.6 mph N/A   Mostly Cloudy
5:16 PM 63.0 °F - 40.8 °F 44% 29.73 in 10.0 mi East 9.2 mph 19.6 mph N/A   Mostly Cloudy
5:35 PM 62.1 °F - 41.0 °F 46% 29.73 in 10.0 mi East 9.2 mph - N/A   Scattered Clouds
5:39 PM 62.1 °F - 41.0 °F 46% 29.73 in 10.0 mi East 9.2 mph - N/A   Scattered Clouds
5:57 PM 61.7 °F - 40.5 °F 46% 29.72 in 10.0 mi East 9.2 mph 16.1 mph N/A   Clear
6:16 PM 60.6 °F - 41.0 °F 48% 29.72 in 10.0 mi East 8.1 mph - N/A   Scattered Clouds
6:35 PM 60.1 °F - 41.2 °F 50% 29.72 in 10.0 mi East 9.2 mph - N/A   Mostly Cloudy
6:36 PM 60.1 °F - 41.2 °F 50% 29.71 in 10.0 mi East 9.2 mph - N/A   Mostly Cloudy
6:55 PM 60.1 °F - 41.2 °F 50% 29.71 in 10.0 mi East 9.2 mph 16.1 mph N/A   Overcast
6:56 PM 60.1 °F - 41.2 °F 50% 29.71 in 10.0 mi East 8.1 mph 16.1 mph N/A   Overcast
7:18 PM 59.4 °F - 41.4 °F 51% 29.71 in 10.0 mi East 8.1 mph - N/A   Overcast
7:36 PM 59.5 °F - 41.0 °F 50% 29.71 in 10.0 mi East 9.2 mph - N/A   Overcast
7:55 PM 59.4 °F - 41.0 °F 51% 29.71 in 10.0 mi East 12.7 mph 16.1 mph N/A   Overcast
7:56 PM 59.4 °F - 40.8 °F 50% 29.71 in 10.0 mi East 13.8 mph 20.7 mph N/A   Overcast
8:15 PM 59.5 °F - 40.6 °F 50% 29.70 in 10.0 mi East 12.7 mph 20.7 mph N/A   Overcast
8:16 PM 59.5 °F - 40.5 °F 49% 29.70 in 10.0 mi East 12.7 mph 20.7 mph N/A   Overcast
8:35 PM 59.5 °F - 40.3 °F 49% 29.69 in 10.0 mi East 13.8 mph 20.7 mph N/A   Mostly Cloudy
8:39 PM 59.5 °F - 40.3 °F 49% 29.69 in 10.0 mi East 12.7 mph 20.7 mph N/A   Overcast
8:58 PM 59.7 °F - 40.1 °F 48% 29.68 in 10.0 mi East 12.7 mph 23.0 mph N/A   Mostly Cloudy
9:16 PM 59.9 °F - 40.3 °F 48% 29.68 in 10.0 mi East 16.1 mph 26.5 mph N/A   Overcast
9:35 PM 60.1 °F - 39.2 °F 46% 29.67 in 10.0 mi East 19.6 mph 25.3 mph N/A   Overcast
9:36 PM 60.1 °F - 39.0 °F 46% 29.67 in 10.0 mi East 17.3 mph 25.3 mph N/A   Overcast
9:55 PM 60.1 °F - 38.3 °F 44% 29.67 in 10.0 mi East 13.8 mph 25.3 mph N/A   Overcast
10:18 PM 59.9 °F - 37.9 °F 44% 29.68 in 10.0 mi East 13.8 mph 23.0 mph N/A   Overcast
10:37 PM 59.7 °F - 37.6 °F 44% 29.69 in 10.0 mi ESE 13.8 mph 23.0 mph N/A   Overcast
10:56 PM 59.0 °F - 39.2 °F 48% 29.71 in 10.0 mi ESE 13.8 mph 23.0 mph N/A   Overcast
11:15 PM 57.9 °F - 40.6 °F 53% 29.68 in 10.0 mi ESE 11.5 mph 18.4 mph N/A   Overcast
11:16 PM 57.7 °F - 40.6 °F 53% 29.69 in 10.0 mi ESE 11.5 mph 18.4 mph N/A   Overcast
11:35 PM 57.7 °F - 40.5 °F 53% 29.68 in 10.0 mi ESE 12.7 mph 17.3 mph N/A   Overcast
11:57 PM 57.2 °F - 41.4 °F 55% 29.66 in 10.0 mi East 11.5 mph 19.6 mph N/A Rain Light Rain